Probability
0 0 0 0 0 0 0 0 0 0 0 0 0 0 0 0 0 0 0 3 0 0 0 0 0 0 0 0 0 0 0 0 0 0 0 0 0 0 0 0 0 0 0
0 0 0 0 0 0 0 0 0 0 0 0 0 0 0 0 0 0 0 0 0 0 0 0 0 0 0 0 0 0 0 0 0 0 0 0 0 0 0 0 0 0 0
0 0 0 0 0 0 0 0 0 0 0 0 0 0 0 0 0 0 0 0 0 0 0 0 0 0 0 0 0 0 0 0 0 0 0 0 0 0 0 0 0 0 0
0 0 0 0 0 0 0 0 0 0 0 0 0 0 0 0 0 0 0 0 0 0 0 0 0 0 0 0 0 0 0 0 0 0 0 0 0 0 0 0 0 0 0
0 0 0 0 0 0 0 0 0 0 0 0 0 0 0 0 0 0 0 0 0 0 0 0 0 0 0 0 0 0 0 0 0 0 0 0 0 0 0 0 0 0 0
0 0 0 0 0 0 0 0 0 0 0 0 0 0 0 0 0 0 0 0 0 0 0 0 0 0 0 0 0 0 0 0 0 0 0 0 0 0 0 0 0 0 0
0 0 0 0 0 0 0 0 0 0 0 0 0 0 0 0 0 0 0 0 0 0 0 0 0 0 0 0 0 0 0 0 0 0 0 0 0 0 0 0 0 0 0
0 0 0 0 0 0 0 0 0 0 0 0 0 0 0 0 0 0 0 0 0 0 0 0 0 0 0 0 0 0 0 0 0 0 0 0 0 0 0 0 0 0 0
0 0 0 0 0 0 0 0 0 0 0 0 0 0 0 0 0 0 0 0 0 0 0 0 0 0 0 0 0 0 0 0 0 0 0 0 0 0 0 0 0 0 0
0 0 0 0 0 0 0 0 0 0 0 0 0 0 0 0 0 0 0 0 0 0 0 0 0 0 0 0 0 0 0 0 0 0 0 0 0 0 0 0 0 0 0
0 0 0 0 0 0 0 0 0 0 0 0 0 0 0 0 0 0 0 0 0 0 0 0 0 0 0 0 0 0 0 0 0 0 0 0 0 0 0 0 0 0 0
0 0 0 0 0 0 0 0 0 0 0 0 0 0 0 0 0 0 0 0 0 0 0 0 0 0 0 0 0 0 0 0 0 0 0 0 0 0 0 0 0 0 0
0 0 0 0 0 0 0 0 0 0 0 0 0 0 0 0 0 0 0 0 0 0 0 0 0 0 0 0 0 0 0 0 0 0 0 0 0 0 0 0 0 0 0
0 0 0 0 0 0 0 0 0 0 0 0 0 0 0 0 0 0 0 0 0 0 0 0 0 0 0 0 0 0 0 0 0 0 0 0 0 0 0 0 0 0 0
0 0 0 0 0 0 0 0 0 0 0 0 0 0 0 0 0 0 0 0 0 0 0 0 0 0 0 0 0 0 0 0 0 0 0 0 0 0 0 0 0 0 0
0 0 0 0 0 0 0 0 0 0 0 0 0 0 0 0 0 0 0 0 0 0 0 0 0 0 0 0 0 0 0 0 0 0 0 0 0 0 0 0 0 0 0
0 0 0 0 0 0 0 0 0 0 0 0 0 0 0 0 0 0 0 0 0 0 0 0 0 0 0 0 0 0 0 0 0 0 0 0 0 0 0 0 0 0 0
0 0 0 0 0 0 0 0 0 0 0 0 0 0 0 0 0 0 0 0 0 0 0 0 0 0 0 0 0 0 0 0 0 0 0 0 0 0 0 0 0 0 0
0 0 0 0 0 0 0 0 0 0 0 0 0 0 0 0 0 0 0 0 0 0 0 0 0 0 0 0 0 0 0 0 0 0 0 0 0 0 0 0 0 0 0
0 0 0 0 0 0 0 0 0 0 0 0 0 0 0 0 0 0 0 0 0 0 0 0 0 0 0 0 0 0 0 0 0 0 0 0 0 0 0 0 0 0 0
0 0 0 0 0 0 0 0 0 0 0 0 0 0 0 0 0 0 0 0 0 0 0 0 0 0 0 0 0 0 0 0 0 0 0 0 0 0 0 0 0 0 0
0 0 0 0 0 0 0 0 0 0 0 0 0 0 0 0 0 0 0 0 0 0 0 0 0 0 0 0 0 0 0 0 0 0 0 0 0 0 0 0 0 0 0
0 0 0 0 0 0 0 0 0 0 0 0 0 0 0 0 0 0 0 0 0 0 0 0 0 0 0 0 0 0 0 0 0 0 0 0 0 0 0 0 0 0 0
0 0 0 0 0 0 0 0 0 0 0 0 0 0 0 0 0 0 0 0 0 0 0 0 0 0 0 0 0 0 0 0 0 0 0 0 0 0 0 0 0 0 0
0 0 0 0 0 0 0 0 0 0 0 0 0 0 0 0 0 0 0 0 0 0 0 0 0 0 0 0 0 0 0 0 0 0 0 0 0 0 0 0 0 0 0
0 0 0 0 0 0 0 0 0 0 0 0 0 0 0 0 0 0 0 0 0 0 0 0 0 0 0 0 0 0 0 0 0 0 0 0 0 0 0 0 0 0 0
Height
5781 5778 5777 5774 5772 5770 5768 5766 5764 5762 5761 5759 5758 5757 5755 5754 5753 5752 5751 5751 5750 5749 5748 5748 5748 5748 5748 5749 5749 5749 5750 5751 5751 5752 5753 5754 5755 5756 5757 5757 5758 5758 5759
5773 5771 5769 5767 5764 5762 5760 5758 5756 5754 5753 5751 5750 5749 5747 5746 5745 5744 5744 5743 5742 5741 5741 5740 5740 5740 5740 5740 5741 5741 5742 5743 5744 5744 5745 5746 5747 5748 5749 5749 5750 5750 5751
5766 5764 5762 5759 5757 5755 5753 5751 5749 5747 5745 5744 5742 5741 5740 5739 5738 5737 5736 5735 5735 5734 5733 5733 5732 5732 5732 5733 5733 5733 5734 5735 5736 5737 5738 5739 5739 5740 5741 5742 5742 5742 5743
5759 5757 5755 5752 5750 5748 5746 5744 5742 5740 5739 5737 5736 5735 5733 5732 5730 5729 5728 5728 5727 5726 5726 5726 5725 5725 5725 5725 5725 5726 5727 5728 5729 5729 5731 5732 5733 5733 5734 5734 5735 5735 5735
5753 5751 5749 5746 5744 5742 5740 5738 5736 5735 5733 5731 5730 5728 5727 5726 5724 5723 5722 5721 5720 5720 5719 5719 5719 5719 5719 5719 5719 5719 5721 5722 5722 5723 5724 5725 5726 5727 5728 5728 5728 5728 5728
5748 5746 5744 5742 5739 5737 5735 5734 5732 5730 5729 5727 5725 5723 5722 5720 5718 5717 5716 5715 5714 5714 5713 5713 5713 5713 5713 5713 5713 5714 5715 5716 5717 5718 5718 5719 5720 5721 5722 5722 5722 5723 5723
5744 5742 5740 5738 5736 5733 5732 5730 5728 5726 5724 5722 5721 5719 5717 5715 5713 5712 5711 5710 5709 5709 5708 5708 5708 5708 5708 5709 5709 5709 5710 5711 5712 5713 5714 5715 5716 5716 5717 5718 5718 5718 5718
5740 5738 5736 5734 5732 5730 5728 5727 5725 5723 5721 5719 5717 5715 5713 5711 5710 5708 5707 5706 5705 5705 5704 5704 5704 5704 5704 5705 5705 5706 5706 5707 5708 5709 5710 5711 5712 5712 5713 5713 5713 5714 5714
5737 5735 5734 5732 5730 5728 5726 5724 5722 5720 5719 5717 5715 5713 5711 5709 5708 5706 5705 5704 5703 5702 5701 5701 5701 5702 5702 5702 5703 5703 5703 5704 5705 5706 5707 5708 5708 5709 5710 5710 5710 5710 5710
5735 5733 5731 5729 5727 5725 5723 5722 5720 5718 5717 5715 5713 5712 5710 5708 5706 5705 5704 5702 5701 5700 5700 5700 5700 5700 5700 5700 5700 5701 5702 5702 5703 5704 5705 5705 5706 5707 5707 5708 5708 5708 5708
5733 5731 5729 5727 5726 5724 5722 5720 5718 5717 5715 5714 5712 5711 5709 5708 5706 5705 5704 5702 5701 5701 5700 5700 5700 5700 5699 5699 5699 5700 5700 5701 5702 5703 5703 5704 5705 5705 5706 5706 5706 5706 5705
5731 5729 5728 5726 5725 5723 5721 5719 5718 5716 5715 5713 5712 5711 5710 5709 5707 5706 5705 5703 5703 5702 5702 5701 5701 5700 5700 5700 5700 5700 5701 5701 5702 5702 5703 5704 5704 5705 5705 5704 5704 5704 5703
5731 5729 5728 5726 5725 5723 5721 5719 5718 5717 5715 5714 5713 5712 5711 5710 5709 5708 5707 5706 5705 5704 5704 5703 5703 5703 5702 5702 5702 5702 5702 5702 5702 5702 5703 5704 5704 5704 5704 5703 5703 5702 5701
5731 5730 5728 5727 5725 5723 5722 5721 5719 5718 5717 5716 5715 5714 5713 5712 5711 5710 5710 5709 5708 5707 5707 5706 5706 5706 5705 5705 5704 5704 5704 5704 5704 5704 5704 5704 5704 5704 5703 5703 5702 5701 5700
5732 5730 5729 5728 5726 5725 5724 5722 5721 5720 5719 5718 5717 5716 5716 5715 5714 5713 5713 5712 5711 5710 5710 5710 5709 5709 5708 5708 5707 5707 5707 5706 5706 5706 5706 5705 5705 5704 5703 5702 5701 5700 5699
5733 5732 5731 5730 5728 5727 5726 5725 5724 5723 5722 5721 5720 5720 5719 5718 5717 5717 5716 5715 5715 5714 5713 5713 5712 5712 5712 5711 5710 5710 5709 5709 5709 5708 5707 5707 5706 5705 5704 5702 5701 5699 5698
5735 5734 5733 5732 5731 5730 5729 5728 5727 5726 5725 5724 5723 5723 5723 5722 5721 5720 5720 5719 5718 5718 5717 5717 5716 5716 5715 5714 5713 5713 5712 5711 5711 5710 5709 5708 5707 5706 5704 5702 5701 5699 5697
5737 5736 5735 5734 5734 5733 5732 5731 5730 5729 5728 5728 5727 5727 5726 5726 5725 5725 5724 5723 5722 5722 5721 5720 5720 5719 5718 5717 5717 5716 5715 5714 5713 5712 5711 5709 5708 5706 5704 5702 5700 5698 5695
5739 5738 5738 5737 5736 5735 5734 5733 5733 5732 5732 5731 5731 5730 5730 5729 5729 5728 5728 5727 5726 5726 5725 5724 5723 5722 5721 5720 5719 5718 5717 5716 5715 5713 5711 5710 5708 5706 5704 5702 5699 5696 5693
5741 5741 5740 5739 5738 5738 5737 5736 5736 5736 5735 5735 5734 5734 5733 5733 5732 5732 5731 5731 5730 5729 5728 5727 5727 5725 5724 5723 5722 5721 5719 5718 5716 5714 5713 5711 5708 5706 5703 5701 5698 5695 5692
5743 5743 5742 5741 5741 5740 5740 5739 5739 5739 5739 5738 5738 5737 5737 5736 5736 5735 5735 5734 5733 5732 5731 5730 5730 5728 5727 5726 5725 5723 5721 5720 5718 5716 5714 5711 5709 5706 5703 5700 5697 5693 5690
5746 5745 5745 5744 5744 5743 5743 5743 5742 5742 5742 5741 5741 5741 5740 5740 5739 5739 5738 5737 5736 5735 5734 5733 5732 5731 5730 5728 5727 5725 5723 5721 5719 5716 5714 5711 5708 5705 5702 5698 5695 5691 5687
5748 5748 5747 5747 5746 5746 5746 5745 5745 5745 5744 5744 5744 5744 5743 5743 5742 5741 5740 5740 5739 5738 5737 5735 5734 5733 5731 5729 5727 5725 5723 5721 5719 5716 5713 5710 5707 5704 5700 5696 5692 5688 5684
5750 5750 5749 5749 5748 5748 5748 5747 5747 5747 5747 5746 5746 5746 5745 5745 5744 5743 5742 5742 5741 5739 5738 5737 5735 5734 5732 5730 5728 5726 5724 5721 5718 5715 5712 5709 5705 5702 5698 5694 5689 5685 5680
5751 5751 5750 5750 5750 5749 5749 5749 5748 5748 5748 5748 5747 5747 5747 5746 5746 5745 5744 5743 5742 5740 5739 5738 5736 5734 5732 5730 5728 5726 5723 5720 5717 5714 5711 5707 5703 5699 5695 5690 5686 5681 5675
5751 5751 5751 5750 5750 5750 5750 5750 5749 5749 5749 5748 5748 5748 5747 5747 5746 5745 5744 5743 5742 5741 5739 5738 5736 5734 5732 5730 5727 5725 5722 5719 5715 5712 5708 5704 5700 5696 5691 5686 5681 5676 5671
Wind_Speed
28 28 28 28 28 28 29 29 28 28 28 28 27 27 27 27 27 26 26 26 26 26 26 27 28 28 27 27 27 28 28 27 27 28 29 30 31 31 31 32 32 32 32
28 27 27 28 28 28 28 28 28 28 27 27 27 27 27 26 26 26 26 26 26 26 26 26 26 27 27 27 27 27 27 27 27 28 28 29 29 30 30 30 30 30 31
27 27 27 27 27 27 27 26 26 26 25 24 25 25 25 25 26 26 26 26 26 26 26 25 25 26 26 26 26 26 26 26 26 27 27 28 28 28 28 29 29 29 29
25 25 25 25 25 25 25 24 24 24 24 23 23 23 23 23 24 24 24 24 24 24 24 23 23 23 23 23 23 23 24 24 24 25 25 26 26 26 26 26 27 27 27
22 22 22 22 23 23 22 22 22 21 21 21 21 21 21 21 21 21 22 21 21 21 21 20 20 20 20 20 20 20 21 21 22 22 22 23 23 23 23 23 24 23 23
19 20 20 20 20 20 20 19 19 19 19 19 19 19 19 19 19 19 19 19 18 18 18 17 17 17 17 17 17 17 18 19 19 19 19 18 19 19 19 19 19 19 19
17 18 17 17 18 18 17 17 17 17 17 17 17 17 17 17 17 16 16 15 15 15 15 15 15 14 14 14 14 14 15 16 16 15 16 16 16 16 16 16 15 15 16
15 15 15 16 16 16 15 15 15 15 15 15 15 15 15 14 13 12 12 12 12 12 12 12 11 11 11 11 11 12 12 12 12 12 12 12 12 13 12 12 12 12 13
14 14 14 14 14 14 14 13 14 14 13 13 13 13 12 12 11 10 9 9 9 8 8 8 8 8 8 8 8 9 9 9 9 9 9 9 9 9 10 10 10 10 11
11 11 12 12 12 12 13 13 13 12 12 11 11 11 10 9 8 8 8 7 6 5 5 5 5 5 5 5 6 5 5 6 6 6 6 6 6 7 8 8 8 9 9
9 10 10 10 10 11 11 11 11 10 9 9 8 8 8 8 8 8 8 6 5 5 5 4 3 3 2 2 1 1 2 3 4 4 4 4 5 5 6 6 7 8 9
8 8 8 9 10 10 10 9 8 7 7 7 7 7 7 7 8 8 8 7 7 6 7 7 6 5 5 5 4 3 2 1 0 0 1 2 2 3 4 5 6 7 8
7 7 8 8 9 9 8 8 8 7 7 6 7 7 7 7 8 9 9 9 8 8 8 9 8 8 8 7 6 5 4 5 5 4 3 2 2 2 3 4 6 8 9
7 6 6 7 8 8 8 7 8 8 8 8 8 8 8 9 10 10 10 10 10 10 10 9 9 9 9 9 9 9 9 8 8 6 5 4 4 4 4 6 7 8 9
7 7 7 7 8 9 9 9 9 9 9 9 9 9 10 10 10 10 10 11 11 11 11 11 11 11 11 10 11 11 10 10 9 8 7 6 6 6 6 7 7 8 9
8 8 8 8 9 10 10 10 10 10 10 10 11 11 11 11 11 11 11 12 12 12 12 12 11 11 11 11 11 11 10 10 9 9 8 8 8 8 8 9 9 10 10
8 8 9 9 10 10 10 10 11 11 11 11 11 11 11 11 12 12 12 12 13 12 12 11 11 11 11 11 11 11 11 10 10 9 9 9 9 10 10 11 11 12 12
8 8 9 9 9 10 10 10 10 11 11 12 12 12 12 12 12 12 12 12 12 12 12 12 12 11 11 11 11 11 10 10 10 10 10 10 10 11 12 12 13 13 14
8 8 8 8 9 10 10 11 11 11 11 12 12 11 11 11 11 12 12 12 13 12 12 12 12 12 12 12 11 11 11 11 10 10 11 11 12 12 13 14 14 15 16
8 8 8 9 9 10 10 10 10 11 11 11 11 11 11 11 11 12 12 12 12 12 12 12 12 12 12 12 12 12 12 11 11 12 12 12 13 14 15 16 17 17 18
8 8 9 9 10 10 10 11 11 10 10 10 10 10 10 10 11 11 11 11 11 11 11 11 11 11 11 11 11 12 12 12 13 13 14 14 15 16 17 18 19 20 21
8 8 8 8 9 9 10 10 10 10 10 10 9 9 9 9 9 10 10 10 11 10 11 11 11 11 11 11 11 12 12 13 13 14 15 16 17 18 19 20 20 21 22
7 7 7 7 7 7 8 8 8 8 8 8 8 8 8 8 8 8 9 9 9 9 10 10 11 11 11 11 12 13 13 13 14 15 16 17 19 20 21 21 22 23 25
5 5 5 5 5 5 6 6 6 6 6 6 6 6 6 6 6 7 7 8 8 8 9 9 10 10 11 12 13 13 14 15 16 17 18 19 21 22 23 24 25 26 27
3 3 3 3 3 3 3 3 3 4 4 3 4 4 4 5 5 6 6 7 7 8 8 9 10 11 12 13 14 14 15 16 18 19 20 22 23 25 26 27 28 29 30
1 1 1 1 1 1 1 1 1 2 2 2 2 2 3 3 4 5 5 6 7 8 9 10 11 12 13 14 15 16 17 18 20 21 23 24 26 27 28 29 30 31 32
Wind_Direction
287 286 285 286 288 287 287 288 289 288 287 286 284 283 283 281 280 280 280 279 277 276 273 270 269 268 267 267 265 264 264 263 262 263 263 262 261 262 263 264 265 265 263
289 288 287 287 289 290 289 289 289 289 289 287 285 284 283 281 281 280 279 278 276 275 275 273 271 270 268 267 265 263 263 264 264 263 263 263 263 263 264 265 266 265 265
289 287 286 287 288 289 290 291 291 291 291 289 287 285 285 284 283 282 280 278 276 276 277 276 274 271 269 267 265 263 262 262 262 262 261 263 264 265 266 266 266 266 267
290 289 288 289 291 291 292 293 294 293 293 291 289 289 289 288 286 284 282 280 279 279 278 278 277 275 273 269 266 265 263 262 263 262 262 264 265 266 267 267 266 267 267
292 292 292 293 295 295 295 295 297 297 296 295 293 293 291 290 289 286 285 281 280 279 279 279 279 277 275 271 268 266 263 264 264 264 264 265 265 266 267 268 268 268 269
295 295 295 296 298 299 298 298 299 299 300 299 298 298 297 295 292 289 286 284 282 281 280 280 278 276 277 274 271 268 265 266 266 265 264 265 267 267 267 270 271 270 272
296 295 298 301 303 305 303 303 304 304 304 305 304 305 304 302 297 294 291 290 287 285 282 281 277 276 275 272 270 268 269 270 267 266 265 265 266 267 268 269 272 275 276
300 300 302 305 308 309 307 308 310 311 312 311 310 310 311 310 307 302 299 296 292 290 286 284 279 275 272 269 264 265 269 269 266 265 264 264 265 267 269 270 274 277 280
304 304 305 307 310 310 309 312 317 319 319 319 319 319 320 321 321 319 316 309 306 299 291 285 283 281 278 270 265 267 267 265 264 264 264 265 264 266 267 273 278 280 282
310 311 312 313 315 314 315 319 321 322 323 322 323 329 333 337 338 339 339 337 337 332 318 308 301 299 296 283 270 263 256 262 258 256 259 261 264 270 274 277 282 286 288
316 314 318 322 324 326 330 329 327 328 329 332 340 349 356 0 3 4 4 5 11 12 13 18 13 7 6 2 291 240 256 266 261 256 261 262 275 286 291 288 293 296 297
325 328 330 334 339 344 348 350 350 350 352 1 9 14 18 22 25 27 32 35 40 51 56 58 57 60 69 70 77 75 61 50 65 207 298 304 298 299 303 303 304 306 305
344 343 342 348 354 359 4 8 12 17 22 29 34 36 39 43 45 48 52 53 58 66 70 70 67 70 73 74 69 64 62 72 75 66 58 42 19 351 332 325 322 322 318
1 2 8 12 15 19 25 29 31 36 41 49 54 54 58 61 63 65 66 67 67 71 77 76 74 73 72 70 68 70 72 71 66 60 57 48 28 12 352 337 333 333 332
23 28 33 34 36 39 43 47 48 49 56 62 66 69 71 71 72 74 74 71 70 73 76 78 75 72 69 67 70 71 69 66 62 58 53 44 32 21 12 7 0 353 345
42 47 47 48 49 51 55 55 55 59 65 69 71 75 74 72 75 75 71 71 73 74 75 73 70 68 65 64 66 66 64 60 55 51 46 42 33 25 18 10 1 353 346
52 53 54 56 58 58 60 61 63 65 68 73 74 74 72 71 70 70 70 70 73 72 70 69 68 67 66 65 64 61 58 55 50 46 40 33 24 15 9 5 1 355 349
55 56 58 60 62 63 63 66 68 71 74 76 77 76 75 72 72 74 73 73 73 72 70 69 67 66 66 63 59 56 52 49 44 37 31 25 18 12 8 3 358 352 348
55 57 61 63 64 66 70 72 74 76 78 79 79 78 76 74 74 74 74 74 74 72 69 66 65 64 62 59 55 51 46 41 36 30 23 17 11 7 2 358 353 349 345
55 59 63 67 69 72 75 75 76 78 79 80 79 79 77 76 75 74 72 71 70 68 65 63 62 60 57 53 49 45 42 37 31 25 19 14 9 4 359 355 351 348 345
59 64 68 72 76 77 77 78 78 79 80 81 81 80 79 79 75 71 69 69 67 65 63 60 57 53 50 46 42 38 33 28 23 18 12 7 2 358 354 351 348 346 343
65 68 71 75 78 79 80 81 80 80 81 82 80 78 77 75 71 69 68 66 63 60 57 54 49 45 40 36 31 26 21 17 12 8 3 359 356 353 351 349 346 344 341
68 69 72 74 76 78 80 81 82 82 81 80 77 74 72 70 68 66 62 58 55 53 49 45 39 33 27 22 17 14 11 6 2 359 357 355 352 350 348 345 343 341 339
66 65 65 68 70 73 76 78 78 78 76 76 73 68 63 59 57 54 50 46 41 37 34 29 24 19 15 11 8 5 2 359 356 354 352 350 348 346 344 342 341 339 338
55 48 48 55 63 69 71 70 68 68 65 61 59 58 54 48 41 35 31 26 23 20 16 12 8 6 4 1 359 356 354 352 350 348 346 344 343 342 341 340 338 337 336
360 4 11 24 31 26 22 24 31 23 13 10 16 17 17 13 10 8 5 2 0 358 356 355 353 352 351 349 348 347 346 345 344 343 342 341 340 340 339 338 337 335 334